Regional Weather Roundup
Issued by NWS

Home | Current Version | Previous Version | Text Only | Print | Product List | Glossary On
Versions: 1 2 3 4 5 6 7 8 9 10 11 12 13 14 15 16 17 18 19 20 21 22 23 24 25 26 27 28 29 30 31 32 33 34 35 36 37 38 39 40 41 42 43 44 45 46 47 48 49 50
000
ASUS43 KLOT 250710
RWRIL

ILLINOIS REGIONAL WEATHER ROUNDUP
NATIONAL WEATHER SERVICE CHICAGO/ROMEOVILLE IL
200 AM CDT FRI APR 25 2014

NOTE: "FAIR" INDICATES FEW OR NO CLOUDS BELOW 12,000 FEET WITH NO
SIGNIFICANT WEATHER AND/OR OBSTRUCTIONS TO VISIBILITY.

* THESE STATIONS ARE NOT UNDER NWS QUALITY CONTROL. THEY ALSO MAY NOT
  REPORT WEATHER SUCH AS PRECIPITATION OR FOG.

ILZ001-002-007-009-015-016-024-250800-
NORTHWEST ILLINOIS

CITY           SKY/WX    TMP DP  RH WIND       PRES   REMARKS
MOLINE         CLOUDY    50  46  86 NW9       29.70S
STERLING*      CLOUDY    54  48  82 N12       29.67R
SAVANNA*       CLOUDY    49  46  90 NW9       29.69S
$$

ILZ003-004-008-010-011-017-018-250800-
NORTH CENTRAL ILLINOIS

CITY           SKY/WX    TMP DP  RH WIND       PRES   REMARKS
ROCKFORD       CLOUDY    50  46  86 N3        29.68S
FREEPORT*      CLOUDY    48  47  94 NW14      29.69S
ROCHELLE*      CLOUDY    49  45  84 NE6       29.66S
DE KALB*       LGT RAIN  46  43  91 NE8       29.63F
PERU*          CLOUDY    51  47  88 NW14      29.64R
$$

ILZ005-006-012>014-019>023-250800-
NORTHEAST ILLINOIS

CITY           SKY/WX    TMP DP  RH WIND       PRES   REMARKS
CHICAGO-OHARE  LGT RAIN  48  41  76 N10       29.65R
CHICAGO-MIDWAY LGT RAIN  52  43  71 SE3       29.63S
AURORA         LGT RAIN  49  45  86 E13       29.62F FOG
LANSING*       RAIN      51  39  64 SE6       29.63F
JOLIET*        RAIN      50  45  85 SE3       29.64S
WAUKEGAN       RAIN      43  38  82 SE12      29.69R
DUPAGE AIRPORT RAIN      48  44  86 N10       29.65F FOG
KANKAKEE*      RAIN      51  47  86 CALM      29.63R
WHEELING       LGT RAIN  46  41  82 N9        29.68R
MORRIS*        RAIN      53  46  75 SE3       29.62F
ROMEOVILLE*    LGT RAIN  49  45  84 S7        29.63S
NORTHERLY ISL    N/A     49  43  80 CALM        N/A
$$

LMZ740>746-250800-
SOUTHERN LAKE MICHIGAN

STATION/POSITION SKY/WX   TEMP    WIND        PRES    VSBY  WAVE
                          AIR SEA DIR/SP/G                  HT/PER
                          (F)     (DEG/KT/KT) (MB)    (MI)  (FT/S)
WAUKEGAN HARBOR            43     350/  6/  7 1007.5R
HARRISON CRIB              48     140/  8/  9   N/A
BURNHAM HARBOR             49      CALM  /  3   N/A
CALUMET HARBOR             53     170/  6/ 10 1004.5R
MICHIGAN CITY              53     110/ 11/ 16   N/A
$$

ILZ025>027-034>036-040-047-049-050-058-095>099-250800-
WEST-CENTRAL ILLINOIS

CITY           SKY/WX    TMP DP  RH WIND       PRES   REMARKS
QUINCY         CLOUDY    50  48  93 NW16      29.73R
GALESBURG*     CLOUDY    50  49  95 NW15G22   29.70R
MACOMB*        CLOUDY    50  50 100 NW16G22   29.72R FOG
JACKSONVILLE*  CLOUDY    54  52  94 NW16G22   29.69R FOG
PITTSFIELD*    CLOUDY    53  49  85 NW12G20   29.73R
$$

ILZ028>032-037-038-041>044-048-051>054-059>061-250800-
CENTRAL ILLINOIS

CITY           SKY/WX    TMP DP  RH WIND       PRES   REMARKS
PONTIAC        CLOUDY    57  55  94 CALM      29.62S
BLOOMINGTON    LGT RAIN  55  52  88 W9        29.63F
DECATUR        CLOUDY    57  55  93 SW5       29.63S
PEORIA         CLOUDY    56  52  86 N9G17     29.64F FOG
LACON*         LGT RAIN  52  49  92 N10       29.63F
LINCOLN*       CLOUDY    56  54  91 NW6       29.63R FOG
SPRINGFIELD    LGT RAIN  55  52  89 NW15      29.64R FOG
TAYLORVILLE    CLOUDY    55  54  94 W5        29.62F
$$

ILZ033-039-045-046-055>057-062-063-250800-
EAST-CENTRAL ILLINOIS

CITY           SKY/WX    TMP DP  RH WIND       PRES   REMARKS
CHAMPAIGN      CLOUDY    56  55  97 W6        29.61F FOG
RANTOUL*       CLOUDY    58  55  91 CALM      29.62S FOG
MATTOON        CLOUDY    56  56 100 SW5       29.61F
PARIS*         LGT RAIN  55  53  92 SE5       29.61F
$$

ILZ079-100>102-250800-
SOUTHWEST ILLINOIS

CITY           SKY/WX    TMP DP  RH WIND       PRES   REMARKS
ALTON          DRIZZLE   55  55 100 NW15G24   29.69R
BELLEVILLE     CLOUDY    57  57 100 W16G24    29.68R
CAHOKIA*       CLOUDY    57  54  89 W12       29.70R
SPARTA*        LGT RAIN  55  55 100 W14       29.68S
$$

ILZ064>066-069>071-074>076-080>082-084>086-088>090-092>094-250800-
SOUTH-CENTRAL ILLINOIS

CITY           SKY/WX    TMP DP  RH WIND       PRES   REMARKS
CARBONDALE     CLOUDY    58  56  93 W8        29.67S
CAIRO*         CLOUDY    60  56  85 W6        29.70R
MARION         DRIZZLE   59  57  94 SW5       29.67S
MT. VERNON     CLOUDY    57  48  72 W3        29.65F
CENTRALIA*     DRIZZLE   56  55  94 SW7       29.64F
SALEM*         RAIN      58  58  99 SW6       29.64F
METROPOLIS*    LGT RAIN  59  56  91 W6        29.67F
$$

ILZ067-068-072-073-078-083-087-091-250800-
SOUTHEAST ILLINOIS

CITY           SKY/WX    TMP DP  RH WIND       PRES   REMARKS
FLORA*         LGT RAIN  56  56 100 SW7       29.64F
FAIRFIELD*     DRIZZLE   57  57 100 CALM      29.63F
HARRISBURG*    LGT RAIN  57  57 100 W6        29.65F
ROBINSON*      HVY RAIN  58  58  97 S5        29.62F
CARMI*         CLOUDY    60  58  94 W6        29.60F
$$

ABBREVIATIONS USED IN REMARKS
   TC - TEMPERATURE IN CELSIUS
  WCI - WIND CHILL INDEX
   HX - HEAT INDEX
  VSB - VISIBILITY
$$




USA.gov is the U.S. government's official web portal to all federal, state and local government web resources and services.